| time (UTC) | temp F | wind direction | speed knots | gust knots | rain 1hr in | rain 24hr in | rain mn in | humidity % | barometer mb |
| 20260505004529 | 71 | 154 | 0.9 | 6.1 | 0.00 | 0.00 | 0.00 | 61 | 1013.2 |
| 20260505003036 | 72 | 162 | 1.7 | 5.2 | 0.00 | 0.00 | 0.00 | 59 | 1013.5 |
| 20260505001521 | 74 | 186 | 2.6 | 7.0 | 0.00 | 0.00 | 0.00 | 55 | 1013.5 |
| 20260505000017 | 76 | 186 | 3.5 | 7.0 | 0.00 | 0.00 | 0.00 | 53 | 1013.7 |
| 20260504234517 | 76 | 182 | 1.7 | 5.2 | 0.00 | 0.00 | 0.00 | 50 | 1013.6 |
| 20260504233017 | 77 | 147 | 1.7 | 5.2 | 0.00 | 0.00 | 0.00 | 47 | 1013.7 |
| 20260504231517 | 79 | 146 | 1.7 | 5.2 | 0.00 | 0.00 | 0.00 | 46 | 1013.8 |
| 20260504230013 | 79 | 162 | 2.6 | 7.8 | 0.00 | 0.00 | 0.00 | 46 | 1013.9 |
| 20260504224517 | 79 | 144 | 1.7 | 5.2 | 0.00 | 0.00 | 0.00 | 45 | 1014.0 |
| 20260504223015 | 79 | 225 | 0.9 | 5.2 | 0.00 | 0.00 | 0.00 | 44 | 1014.1 |
| 20260504221510 | 80 | 198 | 1.7 | 5.2 | 0.00 | 0.00 | 0.00 | 43 | 1014.1 |
| 20260504220008 | 80 | 164 | 3.5 | 7.8 | 0.00 | 0.00 | 0.00 | 43 | 1014.5 |
| 20260504214506 | 81 | 217 | 1.7 | 5.2 | 0.00 | 0.00 | 0.00 | 45 | 1014.3 |
| 20260504213013 | 80 | 206 | 1.7 | 6.1 | 0.00 | 0.00 | 0.00 | 46 | 1014.4 |
| 20260504211503 | 80 | 213 | 1.7 | 4.3 | 0.00 | 0.00 | 0.00 | 46 | 1014.6 |
| 20260504210002 | 80 | 205 | 2.6 | 7.0 | 0.00 | 0.00 | 0.00 | 46 | 1014.7 |
| 20260504204503 | 80 | 195 | 2.6 | 7.8 | 0.00 | 0.00 | 0.00 | 47 | 1014.7 |
| 20260504203108 | 80 | 158 | 1.7 | 8.7 | 0.00 | 0.00 | 0.00 | 49 | 1015.1 |
| 20260504201611 | 80 | 290 | 2.6 | 5.2 | 0.00 | 0.00 | 0.00 | 50 | 1015.2 |
| 20260504200055 | 80 | 193 | 3.5 | 7.0 | 0.00 | 0.00 | 0.00 | 48 | 1015.5 |
| 20260504194556 | 80 | 260 | 3.5 | 7.8 | 0.00 | 0.00 | 0.00 | 47 | 1015.7 |
| 20260504193056 | 79 | 264 | 0.0 | 6.1 | 0.00 | 0.00 | 0.00 | 49 | 1016.1 |
| 20260504191607 | 79 | 182 | 2.6 | 7.8 | 0.00 | 0.00 | 0.00 | 48 | 1016.3 |
| 20260504184551 | 79 | 140 | 2.6 | 7.0 | 0.00 | 0.00 | 0.00 | 48 | 1016.5 |
| 20260504183042 | 79 | 198 | 2.6 | 7.0 | 0.00 | 0.00 | 0.00 | 49 | 1016.7 |
| 20260504181540 | 78 | 107 | 3.5 | 7.0 | 0.00 | 0.00 | 0.00 | 49 | 1016.9 |
| 20260504180039 | 78 | 179 | 4.3 | 7.0 | 0.00 | 0.00 | 0.00 | 49 | 1017.1 |
| 20260504174542 | 78 | 205 | 3.5 | 7.8 | 0.00 | 0.00 | 0.00 | 49 | 1017.1 |
| 20260504173037 | 77 | 200 | 1.7 | 7.0 | 0.00 | 0.00 | 0.00 | 48 | 1017.2 |
| 20260504171539 | 77 | 134 | 1.7 | 8.7 | 0.00 | 0.00 | 0.00 | 50 | 1017.2 |
| 20260504081540 | 56 | 190 | 0.0 | 0.0 | 0.00 | 0.00 | 0.00 | 79 | 1017.5 |
| 20260504050019 | 62 | 201 | 0.0 | 0.0 | 0.00 | 0.00 | 0.00 | 72 | 1018.8 |
| 20260504044515 | 62 | 200 | 0.0 | 0.0 | 0.00 | 0.00 | 0.00 | 71 | 1019.1 |
| 20260504043014 | 63 | 200 | 0.0 | 0.0 | 0.00 | 0.00 | 0.00 | 71 | 1019.1 |
| 20260504041515 | 63 | 239 | 0.0 | 2.6 | 0.00 | 0.00 | 0.00 | 69 | 1019.2 |
| 20260504040009 | 63 | 242 | 0.9 | 3.5 | 0.00 | 0.00 | 0.00 | 69 | 1019.2 |
| 20260504034509 | 64 | 221 | 0.0 | 1.7 | 0.00 | 0.00 | 0.00 | 69 | 1019.2 |
| 20260504033009 | 64 | 219 | 0.0 | 2.6 | 0.00 | 0.00 | 0.00 | 67 | 1019.2 |
| 20260504031509 | 65 | 232 | 0.9 | 4.3 | 0.00 | 0.00 | 0.00 | 66 | 1019.3 |
| 20260504030008 | 66 | 203 | 0.9 | 3.5 | 0.00 | 0.00 | 0.00 | 65 | 1019.3 |
| 20260504024507 | 67 | 146 | 0.9 | 3.5 | 0.00 | 0.00 | 0.00 | 63 | 1019.2 |
| 20260504023006 | 67 | 240 | 0.9 | 2.6 | 0.00 | 0.00 | 0.00 | 58 | 1019.0 |
| 20260504021505 | 67 | 205 | 0.9 | 1.7 | 0.00 | 0.00 | 0.00 | 60 | 1018.8 |
| 20260504020007 | 67 | 208 | 0.0 | 0.0 | 0.00 | 0.00 | 0.00 | 63 | 1018.6 |
| 20260504014504 | 68 | 208 | 0.0 | 0.0 | 0.00 | 0.00 | 0.00 | 62 | 1018.4 |
| 20260504013005 | 69 | 208 | 0.0 | 0.0 | 0.00 | 0.00 | 0.00 | 60 | 1018.3 |
| 20260504011504 | 70 | 208 | 0.0 | 0.9 | 0.00 | 0.00 | 0.00 | 58 | 1018.2 |
| 20260504010003 | 71 | 208 | 0.0 | 0.9 | 0.00 | 0.00 | 0.00 | 54 | 1018.1 |